Location: Chippewa Lake
(41.0698°N, 81.9010°W)
Time: 02:07:08
(UTC+00:00)

Cosmos 2278 Rocket - Pass Details

Date: 09 May 2021
Orbit: 841 x 845 km, 71.0° (Epoch: 24 June)

Event Time Altitude Azimuth Distance (km) Brightness Sun altitude
Exits shadow 03:52:57 27° 243° (WSW) 1,556 3.5 -27.8°
Maximum altitude 03:55:36 46° 299° (WNW) 1,123 3.1 -28.0°
Drops below altitude 10° 04:01:01 10° 12° (NNE) 2,466 5.3 -28.4°
Sets 04:03:35 0° 19° (NNE) 3,405 6.0 -28.6°
